{"data":{"norad_id":48695,"intl_designator":"2021-044BK","name":"STARLINK-2616","alt_names":[],"object_type":"PAYLOAD","status":"ACTIVE","operator":null,"country":"US","launch_date":"2021-05-26","launch_site_code":"AFETR","launch_vehicle":null,"mission":null,"orbit_class":"UNKNOWN","rcs_meters":null,"size_class":null,"mass_kg":null,"dimensions":null,"purposes":["comms"],"wikipedia_slug":null,"has_3d_model":false,"image_url":null,"decayed_at":null,"tle_current":{"epoch":"2026-05-25T02:54:19.306656Z","epoch_age_seconds":58546,"freshness":"FRESH","line1":"1 48695U 21044BK  26145.12105679 -.00001643  00000+0 -41164-4 0  9997","line2":"2 48695  53.1619  82.3120 0001407 117.3832 242.7312 15.31706762276040","mean_motion":15.31706762,"eccentricity":0.0001407,"inclination_deg":53.1619,"raan_deg":82.312,"arg_perigee_deg":117.3832,"mean_anomaly_deg":242.7312,"bstar":-4.1164e-5,"rev_number":27604,"period_min":94.012772922654,"perigee_km":469.75620397255,"apogee_km":471.6834722868,"semimajor_km":6848.8568381297,"source":"CELESTRAK","updated_at":"2026-05-25T13:38:16.763761Z"}}}